Weather observations for the past three days for
Laughlin Air Force Base Auxiliary Airfield
Imperial (Metric)
Date Time (cdt) Wind (mph) Vis. (mi.) Weather Sky Cond. Temperature (ºF) Relative Humidity Wind Chill (°F) Heat Index (°F) Pressure Precipitation (in)
Air Dwpt 6 hour altimeter (in) sea level (mb) 1 hr 3 hr 6 hr
Max. Min.
05 20:55 E 10 10.00 Fair CLR 88.2 68.7 53% 92 29.8 1007.6
05 19:55 NE 10 10.00 Fair CLR 89.6 69.6 52% 95 29.77 1006.7
05 17:55 E 17 10.00 Thunderstorm in Vicinity CLR 96.8 69.1 41% 103 29.77 1006.6
05 16:55 SE 14 10.00 Thunderstorm in Vicinity NULL 99.9 66.4 34% 104 29.76 1006.1
05 15:55 SE 15 G 23 10.00 Fair CLR 99.1 67.5 36% 104 29.78 1006.8
05 14:55 E 14 G 21 10.00 Fair CLR 97.7 67.6 38% 103 29.81 1007.8
05 11:55 SE 13 G 18 10.00 Fair CLR 90 72.7 57% 98 29.9 1011.0
05 10:55 SE 10 10.00 Mostly Cloudy BKN022 86.7 73 64% 94 29.91 1011.3
05 09:55 E 14 10.00 Fair CLR 85.8 73.9 68% 94 29.91 1011.3
05 08:55 E 13 10.00 Fair CLR 82.2 73.4 75% 88 29.9 1011.0
05 07:55 E 10 10.00 Fair CLR 79.5 72.7 80% 83 29.87 1010.0
05 05:55 E 12 10.00 Fair CLR 80.4 71.2 74% 84 29.85 1009.2
05 04:55 E 9 10.00 Fair CLR 81.7 70 68% 85 29.86 1009.5
05 03:55 E 10 10.00 Fair CLR 82.9 70.3 66% 87 29.85 1009.2
05 02:55 E 10 10.00 Fair CLR 84.2 68.2 59% 88 29.85 1009.2
05 01:55 E 8 10.00 Fair CLR 84.6 68.2 58% 88 29.85 1009.2
05 00:55 E 13 10.00 Mostly Cloudy BKN200 86.5 67.8 97.7 86.5 54% 90 29.84 1008.9
04 23:55 E 14 10.00 Mostly Cloudy BKN200 88.3 67.8 51% 92 29.86 1009.6
04 22:55 E 12 10.00 Partly Cloudy SCT170 90.5 68 48% 94 29.86 1009.6
04 21:55 E 13 10.00 A Few Clouds FEW170 91.9 66.7 44% 95 29.85 1009.3
04 20:55 E 15 10.00 Fair CLR 93.9 66.6 41% 97 29.81 1007.9
04 19:55 E 10 10.00 Fair CLR 95.9 66.2 38% 99 29.8 1007.6
04 18:55 E 17 10.00 Fair CLR 97.9 66.4 100.9 92.5 36% 102 29.79 1007.2
04 17:55 SE 13 10.00 Fair CLR 100.6 64.4 31% 104 29.78 1006.9
04 16:55 E 16 G 25 10.00 Fair CLR 99.9 67.3 35% 105 29.77 1006.5
04 15:55 SE 13 G 20 10.00 Fair CLR 98.1 70.9 42% 106 29.81 1007.8
04 14:55 SE 14 G 22 10.00 Fair CLR 95.7 72.9 48% 105 29.83 1008.6
04 13:55 SE 17 10.00 Fair CLR 94.8 72.5 49% 104 29.85 1009.2
04 12:55 SE 13 10.00 Fair CLR 93 72.7 93 79 52% 102 29.88 1010.2
04 11:55 SE 13 10.00 A Few Clouds FEW028 90.1 72.7 57% 98 29.89 1010.6
04 10:55 E 15 10.00 Mostly Cloudy BKN023 87.4 73.2 63% 95 29.89 1010.6
04 09:55 SE 9 10.00 Mostly Cloudy BKN018 85.3 73.4 68% 92 29.89 1010.6
04 08:55 E 15 10.00 Fair CLR 82.2 73.8 76% 88 29.88 1010.3
04 07:55 E 13 10.00 Fair CLR 79.3 73.6 83% 83 29.86 1009.6
04 06:55 E 10 10.00 Fair CLR 79.5 73.4 88.5 79.2 82% 83 29.85 1009.2
04 05:55 E 9 10.00 Fair CLR 80.6 73.4 79% 85 29.85 1009.2
04 04:55 E 9 10.00 Fair CLR 81.5 72.7 75% 86 29.84 1008.8
04 03:55 E 12 10.00 Fair CLR 82.8 72.7 72% 88 29.84 1008.8
04 02:55 E 12 10.00 Fair CLR 84.4 73 69% 91 29.84 1008.8
04 01:55 SE 15 10.00 Fair CLR 86.5 72.3 63% 93 29.84 1008.8
04 00:55 E 20 10.00 Fair CLR 88.5 70.7 102.4 88.5 56% 94 29.83 1008.5
03 23:55 SE 15 10.00 Fair CLR 90.5 68.7 49% 95 29.82 1008.2
03 22:55 E 14 G 22 10.00 Fair CLR 91.9 61.2 36% 92 29.8 1007.5
03 21:55 E 12 10.00 Fair CLR 93.7 61 34% 94 29.77 1006.5
03 20:55 E 10 10.00 Fair CLR 95.2 61.5 33% 96 29.75 1005.8
03 19:55 E 8 10.00 Fair CLR 98.8 57.9 26% 98 29.73 1005.2
03 18:55 E 13 10.00 Fair CLR 102.6 58.8 104.5 95.4 24% 103 29.73 1005.1
03 17:55 E 13 10.00 Fair CLR 103.8 58.6 23% 104 29.72 1004.7
03 16:55 E 12 G 18 10.00 Fair CLR 103.5 62.8 26% 106 29.73 1005.1
03 15:55 E 9 10.00 A Few Clouds FEW075 104.2 62.4 26% 107 29.75 1005.7
03 14:55 S 13 10.00 Fair CLR 102.7 66.2 31% 108 29.78 1006.7
03 13:55 SE 9 10.00 Fair CLR 99.9 69.6 38% 107 29.81 1007.8
03 12:55 SE 9 10.00 Fair CLR 95.2 71.6 95.5 79.5 47% 103 29.85 1009.2
03 11:55 SE 9 10.00 Fair CLR 91.9 72.9 54% 101 29.88 1010.3
03 10:55 SE 12 10.00 Fair CLR 88.2 73.4 62% 96 29.88 1010.3
03 09:55 SE 15 10.00 Fair CLR 85.3 73.4 68% 92 29.89 1010.6
03 08:55 E 15 10.00 Fair CLR 82.6 73.4 74% 89 29.89 1010.7
03 07:55 E 9 10.00 Fair CLR 79.7 72.5 79% 83 29.87 1009.9
03 06:55 E 10 10.00 Fair CLR 80.4 72.1 87.6 80.4 76% 85 29.86 1009.5
03 05:55 E 10 10.00 Fair CLR 82.4 72 71% 87 29.86 1009.5
03 04:55 E 12 10.00 Fair CLR 83.5 72.1 69% 89 29.85 1009.2
03 03:55 E 12 10.00 Fair CLR 85.1 72.3 66% 91 29.85 1009.2
03 02:55 E 14 10.00 Fair CLR 86.2 71.1 61% 92 29.85 1009.2
03 01:55 E 9 10.00 A Few Clouds FEW100 86.4 66 51% 89 29.85 1009.2
03 00:55 E 10 10.00 Fair CLR 87.8 63.1 101.8 86.9 44% 89 29.85 1009.2
02 23:55 E 6 10.00 Fair CLR 87.4 62.1 43% 88 29.84 1008.9
02 22:55 E 8 10.00 Fair CLR 90.1 61.7 39% 90 29.83 1008.6
02 21:55 E 8 10.00 Fair CLR 91.9 61.9 37% 92 29.82 1008.3
Date Time (cdt) Wind (mph) Vis. (mi.) Weather Sky Cond. Air Dwpt Max. Min. Relative Humidity Wind Chill (°F) Heat Index (°F) altimeter (in) sea level (mb) 1 hr 3 hr 6 hr
6 hour
Temperature (ºF) Pressure Precipitation (in)